Location: Unspecified
(0.0000°N, 0.0000°E)
Time: 02:51:41
(UTC+00:00)

deb NNS O-18 - Pass Details

Date: 11 November 2024
Orbit: 1009 x 1291 km, 89.8° (Epoch: 29 November)

Event Time Altitude Azimuth Distance (km) Brightness Sun altitude
Rises 02:48:34 0° 145° (SE) 4,096 ? -41.4°
Reaches altitude 10° 02:52:20 10° 127° (SE) 3,076 ? -40.5°
Maximum altitude 02:56:46 18° 87° (E) 2,478 ? -39.5°
Drops below altitude 10° 03:01:01 10° 48° (NE) 2,943 ? -38.5°
Sets 03:04:28 0° 29° (NNE) 3,848 ? -37.7°
